Location: Unspecified
(0.0000°N, 0.0000°E)
Time: 08:28:49
(UTC+00:00)

BEESAT 2 - Pass Details

Date: 14 December 2019
Orbit: 493 x 535 km, 64.9° (Epoch: 23 January)

Event Time Altitude Azimuth Distance (km) Brightness Sun altitude
Rises 18:57:14 0° 330° (NNW) 2,650 ? -14.3°
Reaches altitude 10° 18:59:28 10° 325° (NW) 1,759 ? -14.9°
Maximum altitude 19:03:17 51° 249° (WSW) 661 ? -15.7°
Drops below altitude 10° 19:07:05 10° 172° (S) 1,743 ? -16.6°
Sets 19:09:17 0° 167° (SSE) 2,624 ? -17.1°
